Regional Weather Roundup
Issued by NWS

Home | Current Version | Previous Version | Text Only | Print | Product List | Glossary Off
Versions: 1 2 3 4 5 6 7 8 9 10 11 12 13 14 15 16 17 18 19 20 21 22 23 24 25 26 27 28 29 30 31 32 33 34 35 36 37 38 39 40 41 42 43 44 45 46 47 48 49 50

000
ASUS45 KPSR 032000
RWRAZ

ARIZONA HOURLY REGIONAL WEATHER ROUNDUP
NATIONAL WEATHER SERVICE PHOENIX AZ
100 PM MST MON AUG 03 2015

NOTE: FAIR INDICATES FEW OR NO CLOUDS BELOW 12,000 FEET WITH NO
SIGNIFICANT WEATHER AND/OR OBSTRUCTIONS TO VISIBILITY.

AZZ001>003-036-032100-
NORTHWEST ARIZONA

CITY           SKY/WX    TMP DP  RH WIND       PRES   REMARKS
KINGMAN        SUNNY     99  42  14 SW25G33   30.00F
$$

AZZ004>008-015-016-018-032100-
NORTH CENTRAL ARIZONA

CITY           SKY/WX    TMP DP  RH WIND       PRES   REMARKS
GRAND CANYON   PTSUNNY   81  41  24 VRB3      30.26F
WILLIAMS       MOSUNNY   81  39  22 VRB6G12   30.35S
PRESCOTT       PTSUNNY   90  45  21 SW12G18   30.15F
FLAGSTAFF      NOT AVBL
PAYSON         SUNNY     90  41  18 SW8G18    30.17F
PAGE           SUNNY     86  58  38 N6        30.06F
$$

AZZ009>014-017-032100-
NORTHEAST ARIZONA

CITY           SKY/WX    TMP DP  RH WIND       PRES   REMARKS
WINSLOW        NOT AVBL
SAINT JOHNS    MOSUNNY   85  44  23 CALM      30.19F
$$

AZZ023-032100-
GREATER PHOENIX AREA

CITY           SKY/WX    TMP DP  RH WIND       PRES   REMARKS
PHOENIX        MOSUNNY  105  48  14 W3        29.83F HX 101
GLENDALE       MOSUNNY  106  46  13 S5        29.85F HX 102
LUKE AFB       SUNNY    105  49  15 SE6       29.82F HX 101
DEER VALLEY    SUNNY    102  48  16 S8        29.86F
SCOTTSDALE     SUNNY    103  49  16 VRB5      29.88F
MESA-GATEWAY   MOSUNNY  102  54  19 NW7       29.88F HX 100
CHANDLER       MOSUNNY  102  50  17 W7        29.85F
$$

AZZ027-028-032100-
SOUTHWEST MARICOPA COUNTY AND PINAL COUNTY

CITY           SKY/WX    TMP DP  RH WIND       PRES   REMARKS
CASA GRANDE    SUNNY    102  50  17 W7        29.86F
GILA BEND      SUNNY    107  42  11 VRB6      29.81F HX 102
$$

AZZ503-504-507>509-032100-
SOUTHEAST ARIZONA

CITY           SKY/WX    TMP DP  RH WIND       PRES   REMARKS
TUCSON         SUNNY    100  49  17 VRB6      29.97F
DAVIS-MONTHAN  SUNNY     98  51  20 NE7       29.95F
NOGALES        SUNNY     94  56  27 W6        30.06F
SIERRA VISTA   MOSUNNY   89  50  26 VRB2      30.14S
SAFFORD        MOSUNNY  100  47  16 NW9G20    29.96F
$$

AZZ020-021-025-026-031-032100-
SOUTHWEST ARIZONA

CITY           SKY/WX    TMP DP  RH WIND       PRES   REMARKS
YUMA           MOSUNNY  108  56  18 S12G17    29.77F HX 107
$$

CAZ031-033-041-043-047-048-061-032100-
SOUTHERN CALIFORNIA

CITY           SKY/WX    TMP DP  RH WIND       PRES   REMARKS
DOWNTOWN L.A.  MOSUNNY   82  65  56 MISG      29.89S
L.A. AIRPORT   PTSUNNY   74  65  73 W15       29.92S
SAN DIEGO      MOSUNNY   76  62  62 SW12      29.92F
BURBANK        MOSUNNY   87  62  43 VRB5      29.89F
ONTARIO        PTSUNNY   90  55  30 W9        29.90F
RIVERSIDE      MOSUNNY   90  59  35 VRB5      29.89F
PALM SPRINGS   SUNNY    105  52  17 E8        29.79F HX 103
EL CENTRO NAS  MOSUNNY  106  50  15 VRB5      29.75F HX 103
IMPERIAL       SUNNY    106  54  17 VRB5      29.73F HX 104
BLYTHE         SUNNY    107  45  12 S10       29.77F HX 102
$$

NVZ020-UTZ003-032100-
SOUTHERN NEVADA-UTAH

CITY           SKY/WX    TMP DP  RH WIND       PRES   REMARKS
LAS VEGAS      NOT AVBL
SALT LAKE CITY RAIN      64  58  80 W9        30.12F
$$

NMZ009-TXZ055-032100-
NEW MEXICO-WEST TEXAS

CITY           SKY/WX    TMP DP  RH WIND       PRES   REMARKS
ALBUQUERQUE    MOSUNNY   84  51  31 W10G21    30.16F
EL PASO        MOSUNNY   91  58  32 NW7       30.03F
$$


........................KEY........................
SKY/WX - SKY CONDITION/WEATHER
TMP    - TEMPERATURE IN FAHRENHEIT
DP     - DEW POINT IN FAHRENHEIT
RH     - RELATIVE HUMIDITY IN PERCENT
WIND   - DIRECTION AND SPEED IN MILES PER HOUR (MPH)
VRB    - VARIABLE WIND DIRECTION
PRES   - MEAN SEA LEVEL PRESSURE IN INCHES OF MERCURY
         F - FALLING PRESSURE   R - RISING PRESSURE
         S - STEADY PRESSURE
VSB    - VISIBILITY IN MILES
HX     - HEAT INDEX IN FAHRENHEIT
WCI    - WIND CHILL INDEX IN FAHRENHEIT
TC     - TEMPERATURE IN CELSIUS WHICH IS ALSO KNOWN AS
         TEMPERATURE IN CENTIGRADE
AFB    - AIR FORCE BASE
         LUKE AFB IS LUKE AIR FORCE BASE
         DAVIS-MONTHAN IS DAVIS-MONTHAN AIR FORCE BASE
NAS    - NAVAL AIR STATION
         EL CENTRO NAS IS EL CENTRO NAVAL AIR STATION
N/A    - NOT AVAILABLE



USA.gov is the U.S. government's official web portal to all federal, state and local government web resources and services.